Back to catalog

STARLINK-34915

AliveCommunicationsSSO
NORAD 65187·PAYLOAD·🇺🇸 United States

Launched Aug 14, 2025 from Vandenberg Space Force Base

Loading…

Next Passes (next 24 hours)

TLE

FreshSource: CelesTrak SupGP

Epoch: Sep 14, 2026, 20:44 UTC

1 65187C 25175P   26257.86437500 -.00060017  00000+0 -18636-2 0  2570
2 65187  97.2843 126.8871 0001934  92.4108  14.0397 15.33460252    12

Track STARLINK-34915 in real time with AllMySat

Download on the App Store